QPF
0.01 0.02 0.01 0.00 0.00 0.00 0.00 0.00 0.00 0.00 0.00 0.00 0.00 0.00 0.00 0.00 0.00 0.00 0.00 0.00 0.00 0.00 0.00 0.00 0.00 0.00 0.00 0.00 0.00 0.00 0.00 0.00 0.01 0.01 0.02 0.03 0.03 0.02
0.00 0.01 0.01 0.01 0.00 0.00 0.00 0.00 0.00 0.00 0.00 0.00 0.00 0.00 0.00 0.00 0.00 0.00 0.00 0.00 0.00 0.00 0.00 0.00 0.00 0.00 0.00 0.00 0.00 0.00 0.00 0.00 0.01 0.01 0.01 0.01 0.03 0.02
0.00 0.00 0.00 0.01 0.01 0.00 0.00 0.00 0.00 0.00 0.00 0.00 0.00 0.00 0.00 0.00 0.00 0.00 0.00 0.00 0.00 0.00 0.00 0.00 0.00 0.00 0.00 0.00 0.00 0.00 0.00 0.00 0.00 0.00 0.00 0.01 0.01 0.02
0.00 0.00 0.00 0.00 0.00 0.01 0.00 0.00 0.00 0.00 0.00 0.00 0.00 0.00 0.00 0.00 0.00 0.00 0.00 0.00 0.00 0.00 0.00 0.00 0.00 0.00 0.00 0.00 0.00 0.00 0.00 0.00 0.00 0.00 0.01 0.00 0.00 0.01
0.00 0.00 0.00 0.00 0.00 0.00 0.00 0.00 0.00 0.00 0.00 0.00 0.00 0.00 0.00 0.00 0.00 0.00 0.00 0.00 0.00 0.00 0.00 0.00 0.00 0.00 0.00 0.00 0.00 0.00 0.00 0.00 0.00 0.00 0.00 0.00 0.00 0.00
0.00 0.00 0.00 0.00 0.00 0.00 0.00 0.00 0.00 0.00 0.00 0.00 0.00 0.00 0.00 0.00 0.00 0.00 0.00 0.00 0.00 0.00 0.00 0.00 0.00 0.00 0.00 0.00 0.00 0.00 0.00 0.00 0.00 0.00 0.00 0.00 0.00 0.00
0.00 0.00 0.00 0.00 0.00 0.00 0.00 0.00 0.00 0.00 0.00 0.00 0.00 0.00 0.00 0.00 0.00 0.00 0.00 0.00 0.00 0.00 0.00 0.00 0.00 0.00 0.00 0.00 0.00 0.00 0.00 0.00 0.00 0.00 0.00 0.00 0.00 0.00
0.00 0.00 0.00 0.00 0.00 0.00 0.00 0.00 0.00 0.00 0.00 0.00 0.00 0.00 0.00 0.00 0.00 0.00 0.01 0.01 0.00 0.00 0.00 0.00 0.00 0.00 0.00 0.00 0.00 0.00 0.00 0.00 0.00 0.00 0.00 0.00 0.00 0.00
0.00 0.00 0.00 0.00 0.00 0.00 0.00 0.00 0.00 0.00 0.01 0.01 0.01 0.01 0.01 0.01 0.01 0.01 0.01 0.01 0.00 0.00 0.00 0.00 0.00 0.00 0.00 0.00 0.00 0.00 0.00 0.00 0.00 0.00 0.00 0.00 0.00 0.00
0.00 0.00 0.00 0.00 0.00 0.00 0.00 0.00 0.00 0.00 0.00 0.01 0.01 0.01 0.01 0.01 0.01 0.01 0.01 0.01 0.00 0.00 0.00 0.00 0.00 0.00 0.00 0.00 0.00 0.00 0.00 0.00 0.00 0.00 0.00 0.00 0.00 0.00
0.00 0.00 0.00 0.00 0.00 0.00 0.00 0.00 0.00 0.00 0.00 0.01 0.01 0.01 0.01 0.01 0.01 0.01 0.01 0.02 0.01 0.00 0.00 0.00 0.00 0.00 0.00 0.00 0.00 0.00 0.00 0.00 0.00 0.00 0.01 0.01 0.01 0.01
0.00 0.00 0.00 0.00 0.01 0.01 0.01 0.01 0.01 0.00 0.00 0.00 0.00 0.01 0.01 0.01 0.01 0.02 0.02 0.02 0.02 0.01 0.00 0.01 0.00 0.01 0.01 0.00 0.00 0.00 0.00 0.00 0.01 0.01 0.01 0.01 0.01 0.01
0.00 0.00 0.00 0.01 0.01 0.01 0.01 0.01 0.01 0.01 0.01 0.01 0.01 0.01 0.01 0.01 0.01 0.01 0.01 0.02 0.02 0.02 0.01 0.01 0.02 0.01 0.01 0.01 0.00 0.00 0.00 0.00 0.00 0.00 0.00 0.00 0.00 0.01
0.00 0.00 0.00 0.01 0.01 0.01 0.01 0.01 0.02 0.02 0.01 0.02 0.01 0.01 0.01 0.01 0.01 0.01 0.01 0.01 0.01 0.01 0.01 0.02 0.03 0.02 0.02 0.02 0.01 0.00 0.00 0.00 0.00 0.00 0.00 0.00 0.00 0.00
0.01 0.00 0.01 0.01 0.01 0.01 0.01 0.01 0.01 0.01 0.01 0.02 0.01 0.01 0.01 0.01 0.01 0.01 0.01 0.01 0.02 0.01 0.01 0.02 0.02 0.02 0.03 0.03 0.02 0.01 0.01 0.00 0.00 0.00 0.00 0.00 0.00 0.00
0.01 0.01 0.01 0.01 0.00 0.00 0.00 0.01 0.01 0.01 0.02 0.02 0.02 0.01 0.01 0.02 0.02 0.02 0.02 0.02 0.02 0.02 0.01 0.02 0.02 0.02 0.03 0.02 0.02 0.01 0.01 0.01 0.00 0.00 0.00 0.00 0.00 0.00
0.01 0.01 0.01 0.01 0.00 0.00 0.00 0.00 0.00 0.00 0.01 0.01 0.02 0.02 0.02 0.02 0.02 0.01 0.02 0.02 0.03 0.02 0.01 0.01 0.02 0.02 0.02 0.02 0.02 0.01 0.01 0.01 0.01 0.01 0.01 0.01 0.00 0.00
0.01 0.01 0.01 0.01 0.01 0.01 0.01 0.01 0.01 0.01 0.01 0.02 0.02 0.02 0.02 0.02 0.02 0.02 0.02 0.03 0.02 0.02 0.01 0.01 0.02 0.03 0.03 0.02 0.01 0.01 0.01 0.01 0.01 0.01 0.01 0.01 0.00 0.00
0.01 0.01 0.01 0.01 0.01 0.01 0.01 0.01 0.01 0.01 0.01 0.02 0.02 0.02 0.02 0.03 0.03 0.03 0.02 0.03 0.02 0.02 0.01 0.01 0.02 0.03 0.04 0.02 0.00 0.00 0.01 0.01 0.01 0.01 0.01 0.01 0.00 0.00
0.00 0.01 0.01 0.01 0.01 0.01 0.01 0.01 0.02 0.02 0.02 0.02 0.02 0.02 0.02 0.03 0.03 0.02 0.02 0.02 0.02 0.02 0.02 0.01 0.02 0.02 0.03 0.02 0.01 0.01 0.01 0.01 0.01 0.01 0.01 0.00 0.00 0.00
0.00 0.01 0.01 0.01 0.01 0.01 0.02 0.02 0.02 0.02 0.02 0.02 0.02 0.02 0.02 0.03 0.03 0.02 0.02 0.02 0.02 0.02 0.02 0.01 0.01 0.01 0.02 0.03 0.03 0.01 0.01 0.01 0.01 0.01 0.01 0.01 0.01 0.00
0.01 0.01 0.01 0.01 0.01 0.01 0.02 0.02 0.02 0.02 0.02 0.02 0.02 0.02 0.02 0.03 0.02 0.02 0.02 0.02 0.02 0.01 0.01 0.01 0.01 0.02 0.02 0.03 0.02 0.01 0.01 0.01 0.01 0.01 0.01 0.01 0.02 0.01
0.01 0.01 0.01 0.01 0.01 0.01 0.01 0.01 0.01 0.01 0.01 0.02 0.02 0.02 0.02 0.02 0.02 0.02 0.02 0.02 0.02 0.01 0.01 0.01 0.01 0.01 0.02 0.02 0.02 0.01 0.01 0.01 0.01 0.01 0.01 0.01 0.01 0.01
MSLP
1021.13 1021.27 1021.41 1021.51 1021.57 1021.55 1021.43 1021.22 1020.91 1020.53 1020.10 1019.66 1019.22 1018.82 1018.48 1018.20 1017.98 1017.82 1017.70 1017.62 1017.55 1017.49 1017.42 1017.34 1017.26 1017.17 1017.08 1016.98 1016.88 1016.79 1016.70 1016.62 1016.55 1016.49 1016.43 1016.38 1016.31 1016.24
1020.82 1020.93 1021.04 1021.12 1021.15 1021.12 1021.02 1020.82 1020.55 1020.21 1019.82 1019.40 1018.98 1018.58 1018.22 1017.91 1017.64 1017.42 1017.25 1017.11 1016.99 1016.89 1016.80 1016.72 1016.63 1016.55 1016.47 1016.39 1016.31 1016.24 1016.17 1016.11 1016.05 1016.01 1015.97 1015.92 1015.87 1015.80
1020.49 1020.55 1020.60 1020.64 1020.65 1020.60 1020.49 1020.32 1020.09 1019.79 1019.45 1019.07 1018.69 1018.31 1017.95 1017.61 1017.30 1017.03 1016.79 1016.58 1016.40 1016.24 1016.11 1015.99 1015.89 1015.81 1015.74 1015.67 1015.61 1015.57 1015.52 1015.49 1015.47 1015.45 1015.43 1015.41 1015.38 1015.33
1020.15 1020.15 1020.15 1020.14 1020.11 1020.04 1019.92 1019.76 1019.55 1019.30 1019.00 1018.68 1018.33 1017.98 1017.62 1017.27 1016.92 1016.60 1016.29 1016.01 1015.76 1015.54 1015.36 1015.20 1015.08 1014.98 1014.91 1014.85 1014.82 1014.80 1014.79 1014.79 1014.80 1014.81 1014.83 1014.84 1014.84 1014.82
1019.82 1019.77 1019.72 1019.65 1019.57 1019.47 1019.34 1019.18 1018.98 1018.75 1018.49 1018.20 1017.89 1017.55 1017.20 1016.84 1016.47 1016.10 1015.74 1015.40 1015.09 1014.81 1014.57 1014.37 1014.21 1014.10 1014.02 1013.97 1013.95 1013.95 1013.97 1014.01 1014.05 1014.11 1014.16 1014.21 1014.25 1014.26
1019.51 1019.41 1019.31 1019.21 1019.08 1018.94 1018.77 1018.59 1018.39 1018.16 1017.91 1017.64 1017.34 1017.02 1016.67 1016.30 1015.91 1015.51 1015.11 1014.72 1014.36 1014.03 1013.74 1013.50 1013.32 1013.19 1013.10 1013.06 1013.05 1013.07 1013.11 1013.17 1013.25 1013.34 1013.43 1013.51 1013.59 1013.64
1019.20 1019.08 1018.94 1018.79 1018.62 1018.44 1018.23 1018.01 1017.78 1017.53 1017.27 1016.99 1016.69 1016.37 1016.02 1015.64 1015.24 1014.82 1014.39 1013.97 1013.57 1013.21 1012.89 1012.63 1012.43 1012.28 1012.19 1012.15 1012.14 1012.17 1012.23 1012.31 1012.40 1012.51 1012.63 1012.75 1012.85 1012.94
1018.88 1018.74 1018.58 1018.39 1018.18 1017.95 1017.70 1017.44 1017.16 1016.87 1016.58 1016.28 1015.96 1015.62 1015.25 1014.87 1014.45 1014.02 1013.58 1013.15 1012.73 1012.35 1012.02 1011.75 1011.54 1011.39 1011.29 1011.25 1011.25 1011.28 1011.35 1011.44 1011.54 1011.67 1011.80 1011.94 1012.07 1012.20
1018.53 1018.38 1018.20 1017.99 1017.74 1017.47 1017.17 1016.86 1016.53 1016.19 1015.85 1015.51 1015.16 1014.80 1014.41 1014.01 1013.59 1013.15 1012.70 1012.27 1011.85 1011.47 1011.14 1010.87 1010.66 1010.51 1010.42 1010.39 1010.39 1010.43 1010.50 1010.60 1010.71 1010.84 1010.98 1011.13 1011.29 1011.43
1018.14 1017.97 1017.77 1017.54 1017.28 1016.97 1016.63 1016.27 1015.89 1015.51 1015.13 1014.74 1014.35 1013.96 1013.55 1013.13 1012.69 1012.24 1011.79 1011.35 1010.93 1010.56 1010.24 1009.98 1009.78 1009.65 1009.58 1009.57 1009.59 1009.64 1009.73 1009.83 1009.94 1010.08 1010.22 1010.38 1010.54 1010.70
1017.68 1017.50 1017.29 1017.05 1016.76 1016.43 1016.07 1015.67 1015.26 1014.84 1014.42 1014.00 1013.58 1013.15 1012.71 1012.26 1011.80 1011.33 1010.86 1010.42 1010.00 1009.63 1009.32 1009.08 1008.91 1008.81 1008.77 1008.78 1008.84 1008.92 1009.03 1009.15 1009.28 1009.42 1009.57 1009.73 1009.90 1010.06
1017.16 1016.96 1016.74 1016.49 1016.19 1015.85 1015.48 1015.07 1014.65 1014.21 1013.77 1013.32 1012.87 1012.41 1011.93 1011.45 1010.95 1010.45 1009.96 1009.49 1009.06 1008.69 1008.39 1008.17 1008.02 1007.96 1007.97 1008.03 1008.14 1008.27 1008.42 1008.58 1008.73 1008.89 1009.05 1009.21 1009.37 1009.54
1016.57 1016.36 1016.13 1015.87 1015.57 1015.24 1014.87 1014.47 1014.05 1013.62 1013.17 1012.71 1012.24 1011.75 1011.24 1010.72 1010.17 1009.63 1009.09 1008.58 1008.13 1007.74 1007.44 1007.24 1007.13 1007.12 1007.18 1007.31 1007.49 1007.68 1007.89 1008.09 1008.29 1008.47 1008.65 1008.81 1008.97 1009.12
1015.94 1015.71 1015.47 1015.21 1014.92 1014.60 1014.25 1013.87 1013.48 1013.06 1012.63 1012.17 1011.69 1011.17 1010.63 1010.05 1009.45 1008.85 1008.26 1007.70 1007.21 1006.80 1006.50 1006.31 1006.24 1006.28 1006.41 1006.61 1006.87 1007.14 1007.42 1007.68 1007.92 1008.13 1008.32 1008.48 1008.63 1008.76
1015.28 1015.03 1014.78 1014.52 1014.24 1013.93 1013.61 1013.27 1012.91 1012.52 1012.11 1011.66 1011.17 1010.64 1010.05 1009.43 1008.78 1008.11 1007.46 1006.85 1006.32 1005.89 1005.58 1005.41 1005.37 1005.46 1005.66 1005.95 1006.28 1006.64 1006.98 1007.30 1007.58 1007.82 1008.01 1008.17 1008.29 1008.40
1014.60 1014.33 1014.07 1013.81 1013.54 1013.26 1012.96 1012.66 1012.33 1011.97 1011.58 1011.15 1010.66 1010.11 1009.49 1008.83 1008.12 1007.40 1006.69 1006.04 1005.47 1005.02 1004.72 1004.56 1004.57 1004.71 1004.98 1005.34 1005.74 1006.17 1006.57 1006.94 1007.24 1007.49 1007.67 1007.81 1007.90 1007.96
1013.91 1013.63 1013.36 1013.09 1012.83 1012.56 1012.29 1012.01 1011.71 1011.39 1011.02 1010.60 1010.11 1009.54 1008.91 1008.21 1007.47 1006.71 1005.97 1005.29 1004.70 1004.25 1003.95 1003.83 1003.87 1004.07 1004.40 1004.81 1005.28 1005.75 1006.19 1006.57 1006.88 1007.11 1007.27 1007.35 1007.39 1007.41
1013.21 1012.93 1012.65 1012.38 1012.11 1011.85 1011.59 1011.33 1011.05 1010.74 1010.38 1009.97 1009.49 1008.92 1008.28 1007.57 1006.82 1006.05 1005.30 1004.61 1004.04 1003.61 1003.34 1003.25 1003.34 1003.59 1003.96 1004.41 1004.91 1005.40 1005.84 1006.21 1006.50 1006.68 1006.78 1006.80 1006.77 1006.72
1012.52 1012.22 1011.93 1011.65 1011.38 1011.12 1010.86 1010.59 1010.32 1010.01 1009.67 1009.27 1008.79 1008.24 1007.61 1006.91 1006.17 1005.42 1004.70 1004.05 1003.51 1003.12 1002.91 1002.87 1003.00 1003.29 1003.69 1004.16 1004.66 1005.14 1005.56 1005.89 1006.12 1006.23 1006.25 1006.19 1006.08 1005.93
1011.81 1011.51 1011.21 1010.91 1010.63 1010.35 1010.08 1009.81 1009.53 1009.22 1008.88 1008.49 1008.03 1007.50 1006.89 1006.24 1005.54 1004.85 1004.19 1003.60 1003.13 1002.81 1002.66 1002.68 1002.86 1003.18 1003.60 1004.07 1004.56 1005.00 1005.36 1005.62 1005.77 1005.80 1005.72 1005.56 1005.36 1005.13
1011.08 1010.76 1010.45 1010.14 1009.84 1009.54 1009.25 1008.97 1008.68 1008.38 1008.04 1007.66 1007.22 1006.73 1006.17 1005.57 1004.95 1004.34 1003.77 1003.27 1002.90 1002.66 1002.59 1002.67 1002.89 1003.24 1003.66 1004.12 1004.57 1004.96 1005.25 1005.43 1005.48 1005.41 1005.24 1004.98 1004.69 1004.38
1010.30 1009.98 1009.66 1009.33 1009.01 1008.70 1008.39 1008.09 1007.80 1007.49 1007.17 1006.81 1006.40 1005.96 1005.47 1004.95 1004.41 1003.90 1003.44 1003.05 1002.78 1002.64 1002.64 1002.78 1003.05 1003.41 1003.83 1004.26 1004.66 1004.98 1005.20 1005.30 1005.26 1005.10 1004.83 1004.49 1004.12 1003.73
1009.49 1009.16 1008.82 1008.48 1008.14 1007.82 1007.50 1007.20 1006.90 1006.60 1006.29 1005.96 1005.61 1005.22 1004.80 1004.37 1003.94 1003.54 1003.18 1002.91 1002.74 1002.69 1002.77 1002.97 1003.26 1003.63 1004.03 1004.43 1004.77 1005.03 1005.18 1005.19 1005.08 1004.84 1004.50 1004.10 1003.66 1003.22
Thickness
5529 5526 5523 5521 5518 5515 5512 5509 5505 5505 5506 5505 5502 5501 5498 5495 5492 5490 5488 5486 5485 5483 5482 5481 5480 5478 5477 5476 5476 5476 5476 5477 5477 5479 5481 5482 5484 5487
5519 5515 5512 5510 5507 5504 5501 5497 5494 5492 5493 5494 5490 5488 5484 5482 5479 5477 5475 5472 5470 5469 5467 5466 5465 5464 5463 5462 5462 5461 5461 5461 5462 5463 5465 5466 5469 5471
5508 5505 5501 5499 5495 5492 5489 5485 5481 5478 5479 5483 5478 5475 5471 5468 5466 5463 5460 5458 5456 5454 5453 5451 5450 5449 5448 5447 5447 5446 5446 5447 5447 5448 5448 5450 5452 5455
5496 5493 5490 5487 5484 5480 5477 5473 5470 5466 5463 5466 5466 5461 5457 5454 5451 5449 5446 5444 5442 5440 5438 5437 5436 5434 5433 5432 5432 5431 5432 5431 5431 5432 5433 5434 5436 5438
5485 5481 5479 5475 5472 5468 5465 5461 5458 5454 5450 5448 5450 5447 5443 5439 5436 5434 5431 5429 5427 5425 5424 5422 5421 5420 5418 5417 5417 5416 5416 5416 5416 5417 5417 5418 5420 5423
5473 5470 5466 5463 5460 5456 5453 5449 5444 5440 5435 5432 5432 5430 5427 5424 5419 5416 5415 5413 5412 5410 5409 5407 5406 5404 5403 5402 5402 5401 5401 5401 5401 5401 5402 5403 5405 5407
5461 5458 5455 5451 5448 5444 5441 5436 5431 5426 5422 5418 5416 5414 5412 5407 5403 5400 5399 5398 5397 5395 5393 5392 5390 5389 5388 5387 5386 5386 5386 5386 5386 5386 5387 5389 5390 5393
5449 5446 5442 5439 5436 5432 5429 5425 5419 5413 5409 5405 5402 5399 5397 5392 5388 5385 5381 5380 5381 5381 5377 5378 5375 5374 5373 5372 5372 5371 5372 5371 5372 5372 5373 5375 5377 5379
5436 5432 5430 5427 5423 5419 5415 5412 5407 5402 5398 5392 5388 5386 5382 5379 5373 5370 5367 5365 5366 5365 5360 5363 5361 5359 5359 5358 5358 5358 5358 5358 5358 5359 5360 5362 5364 5366
5423 5420 5416 5413 5409 5404 5401 5397 5393 5389 5383 5378 5375 5373 5369 5365 5360 5356 5354 5351 5352 5349 5345 5345 5346 5345 5345 5344 5344 5344 5344 5345 5345 5346 5348 5350 5352 5354
5411 5407 5402 5399 5396 5391 5387 5383 5380 5376 5371 5367 5363 5360 5356 5352 5347 5342 5339 5335 5337 5337 5332 5329 5331 5330 5331 5331 5331 5330 5331 5332 5333 5335 5336 5338 5340 5343
5399 5394 5390 5386 5382 5378 5372 5368 5365 5363 5359 5355 5351 5347 5342 5338 5334 5329 5325 5321 5320 5321 5321 5315 5315 5313 5315 5319 5317 5317 5318 5319 5320 5322 5324 5326 5328 5331
5386 5382 5377 5373 5369 5365 5360 5355 5352 5349 5346 5342 5338 5334 5330 5325 5321 5317 5313 5309 5307 5307 5306 5302 5301 5299 5298 5303 5306 5305 5305 5306 5308 5309 5312 5314 5316 5319
5373 5369 5365 5361 5357 5352 5348 5343 5340 5336 5332 5329 5325 5322 5317 5313 5310 5306 5303 5299 5297 5296 5294 5291 5289 5289 5288 5290 5293 5295 5295 5296 5297 5299 5301 5303 5306 5309
5361 5357 5353 5348 5344 5340 5335 5331 5327 5322 5319 5316 5314 5311 5306 5302 5299 5295 5292 5289 5287 5286 5284 5282 5280 5279 5278 5279 5282 5284 5285 5287 5288 5290 5291 5294 5296 5299
5348 5345 5341 5337 5332 5328 5324 5319 5314 5310 5307 5305 5303 5300 5295 5291 5288 5284 5281 5279 5278 5278 5276 5274 5272 5271 5270 5271 5273 5275 5276 5277 5280 5281 5283 5286 5289 5292
5337 5333 5328 5324 5320 5316 5312 5308 5305 5301 5298 5295 5292 5289 5285 5282 5278 5275 5272 5270 5269 5269 5268 5266 5264 5264 5264 5265 5267 5269 5270 5271 5273 5275 5277 5280 5284 5286
5327 5322 5317 5313 5310 5307 5304 5300 5296 5293 5290 5286 5283 5279 5276 5273 5270 5267 5264 5263 5262 5262 5261 5259 5258 5257 5258 5260 5262 5264 5265 5266 5268 5269 5271 5274 5279 5283
5315 5311 5307 5304 5300 5297 5294 5291 5288 5286 5282 5279 5276 5272 5268 5266 5263 5261 5259 5257 5256 5255 5254 5253 5251 5250 5251 5254 5258 5259 5259 5261 5262 5264 5266 5268 5273 5278
5304 5301 5298 5295 5292 5289 5286 5283 5280 5277 5274 5272 5268 5265 5262 5259 5257 5255 5253 5251 5250 5249 5248 5247 5246 5245 5246 5247 5250 5253 5254 5255 5257 5259 5262 5265 5269 5274
5296 5292 5289 5287 5284 5281 5278 5275 5272 5270 5268 5264 5262 5259 5256 5253 5251 5250 5248 5248 5246 5245 5244 5244 5243 5243 5242 5242 5244 5248 5250 5252 5253 5254 5256 5259 5264 5269
5287 5284 5282 5279 5276 5274 5271 5268 5266 5264 5261 5258 5256 5254 5251 5249 5247 5246 5244 5243 5242 5241 5240 5240 5239 5238 5237 5238 5240 5243 5246 5248 5250 5252 5254 5256 5257 5262
5279 5277 5274 5272 5270 5268 5265 5262 5260 5257 5255 5253 5251 5249 5247 5245 5244 5242 5241 5239 5238 5236 5235 5235 5234 5234 5235 5235 5236 5238 5240 5243 5246 5249 5253 5256 5258 5260